• In Belgium
  • List of Countries
  • For 7 days
  • Water Temperature
  • Satellite Maps
  • Weather Map
  • Weather Widgets
  • user-avatar
    Login

    Hourly Weather Diksmuide

    Today, 19 January, Friday

    Time Temperature Precipitation Wind Pressure Humidity
    00:00 +2°C° 0 mm 6 mps 754 mmHg 79%
    01:00 +2°C° 0.1 mm 6 mps 754 mmHg 79%
    02:00 +2°C° 0.1 mm 6 mps 754 mmHg 80%
    03:00 +1°C° 0.1 mm 6 mps 754 mmHg 80%
    04:00 +1°C° 0 mm 6 mps 755 mmHg 81%
    05:00 +1°C° 0 mm 6 mps 755 mmHg 82%
    06:00 0°C° 0 mm 5 mps 756 mmHg 85%
    07:00 0°C° 0 mm 5 mps 756 mmHg 84%
    08:00 +1°C° 0 mm 5 mps 756 mmHg 84%
    09:00 +1°C° 0 mm 5 mps 756 mmHg 83%
    10:00 +2°C° 0 mm 6 mps 756 mmHg 78%
    11:00 +3°C° 0 mm 6 mps 756 mmHg 72%
    12:00 +4°C° 0 mm 7 mps 756 mmHg 67%
    13:00 +4°C° 0.1 mm 6 mps 756 mmHg 68%
    14:00 +4°C° 0.1 mm 6 mps 756 mmHg 68%
    15:00 +4°C° 0.1 mm 6 mps 756 mmHg 68%
    16:00 +3°C° 0.1 mm 6 mps 756 mmHg 71%
    17:00 +2°C° 0.1 mm 6 mps 756 mmHg 74%
    18:00 +1°C° 0.1 mm 6 mps 756 mmHg 76%
    19:00 +2°C° 0.2 mm 6 mps 756 mmHg 77%
    20:00 +2°C° 0.2 mm 7 mps 756 mmHg 77%
    21:00 +2°C° 0.2 mm 7 mps 756 mmHg 77%
    22:00 +1°C° 0.1 mm 6 mps 756 mmHg 78%
    23:00 +1°C° 0.1 mm 6 mps 757 mmHg 79%

    Tomorrow, 20 January, Saturday

    Time Temperature Precipitation Wind Pressure Humidity
    00:00 +1°C° 0.1 mm 6 mps 757 mmHg 79%
    01:00 +1°C° 0 mm 5 mps 756 mmHg 80%
    02:00 0°C° 0 mm 5 mps 756 mmHg 81%
    03:00 0°C° 0 mm 5 mps 756 mmHg 82%
    04:00 0°C° 0 mm 4 mps 756 mmHg 83%
    05:00 0°C° 0 mm 4 mps 755 mmHg 83%
    06:00 0°C° 0 mm 4 mps 755 mmHg 84%
    07:00 +1°C° 0.3 mm 4 mps 754 mmHg 87%
    08:00 +1°C° 0.3 mm 4 mps 753 mmHg 90%
    09:00 +2°C° 0.3 mm 3 mps 752 mmHg 93%
    10:00 +3°C° 0.7 mm 3 mps 752 mmHg 93%
    11:00 +3°C° 0.7 mm 3 mps 751 mmHg 93%
    12:00 +3°C° 0.7 mm 3 mps 751 mmHg 93%
    13:00 +4°C° 0.2 mm 2 mps 751 mmHg 92%
    14:00 +4°C° 0.2 mm 2 mps 751 mmHg 92%
    15:00 +4°C° 0.2 mm 2 mps 751 mmHg 92%
    16:00 +4°C° 0.1 mm 2 mps 751 mmHg 93%
    17:00 +4°C° 0.1 mm 2 mps 752 mmHg 93%
    18:00 +3°C° 0.1 mm 2 mps 752 mmHg 94%
    19:00 +3°C° 0.2 mm 2 mps 753 mmHg 94%
    20:00 +3°C° 0.2 mm 2 mps 754 mmHg 93%
    21:00 +3°C° 0.2 mm 2 mps 754 mmHg 92%
    22:00 +3°C° 0 mm 2 mps 755 mmHg 92%
    23:00 +3°C° 0 mm 1 mps 756 mmHg 92%

    Day after tomorrow, 21 January, Sunday

    Time Temperature Precipitation Wind Pressure Humidity
    00:00 +3°C° 0 mm 1 mps 756 mmHg 92%
    01:00 +3°C° 0 mm 1 mps 757 mmHg 92%
    02:00 +3°C° 0 mm 1 mps 757 mmHg 91%
    03:00 +3°C° 0 mm 1 mps 758 mmHg 91%
    04:00 +3°C° 0 mm 1 mps 758 mmHg 90%
    05:00 +2°C° 0 mm 2 mps 758 mmHg 90%
    06:00 +3°C° 0 mm 2 mps 758 mmHg 89%
    07:00 +2°C° 0.4 mm 3 mps 758 mmHg 88%
    08:00 +1°C° 0.4 mm 4 mps 758 mmHg 87%
    09:00 +1°C° 0.4 mm 4 mps 758 mmHg 86%
    10:00 +1°C° 0.7 mm 5 mps 758 mmHg 86%
    11:00 +2°C° 0.7 mm 6 mps 757 mmHg 85%
    12:00 +2°C° 0.7 mm 6 mps 757 mmHg 85%
    13:00 +2°C° 1.3 mm 6 mps 757 mmHg 87%
    14:00 +2°C° 1.3 mm 6 mps 756 mmHg 89%
    15:00 +2°C° 1.3 mm 6 mps 756 mmHg 92%
    16:00 +3°C° 1 mm 5 mps 756 mmHg 93%
    17:00 +5°C° 1 mm 5 mps 756 mmHg 94%
    18:00 +6°C° 1 mm 5 mps 756 mmHg 95%
    19:00 +7°C° 0.8 mm 5 mps 756 mmHg 95%
    20:00 +7°C° 0.8 mm 5 mps 756 mmHg 95%
    21:00 +8°C° 0.8 mm 5 mps 756 mmHg 95%
    22:00 +9°C° 0.6 mm 6 mps 756 mmHg 94%
    23:00 +9°C° 0.6 mm 7 mps 755 mmHg 94%

    22 January, Monday

    Time Temperature Precipitation Wind Pressure Humidity
    00:00 +10°C° 0.6 mm 7 mps 755 mmHg 93%
    01:00 +10°C° 0.5 mm 8 mps 755 mmHg 93%
    02:00 +10°C° 0.5 mm 8 mps 755 mmHg 92%
    03:00 +11°C° 0.5 mm 9 mps 755 mmHg 91%
    04:00 +11°C° 0.9 mm 9 mps 755 mmHg 92%
    05:00 +11°C° 0.9 mm 8 mps 755 mmHg 92%
    06:00 +11°C° 0.9 mm 8 mps 755 mmHg 92%
    07:00 +11°C° 1.3 mm 8 mps 755 mmHg 92%
    08:00 +11°C° 1.3 mm 8 mps 755 mmHg 91%
    09:00 +11°C° 1.3 mm 8 mps 755 mmHg 91%
    10:00 +11°C° 1.8 mm 7 mps 755 mmHg 91%
    11:00 +11°C° 1.8 mm 7 mps 755 mmHg 91%
    12:00 +11°C° 1.8 mm 7 mps 755 mmHg 91%
    13:00 +10°C° 0.5 mm 6 mps 755 mmHg 92%
    14:00 +10°C° 0.5 mm 5 mps 756 mmHg 92%
    15:00 +10°C° 0.5 mm 5 mps 756 mmHg 93%
    16:00 +10°C° 0 mm 4 mps 757 mmHg 93%
    17:00 +10°C° 0 mm 4 mps 758 mmHg 94%
    18:00 +9°C° 0 mm 3 mps 759 mmHg 94%
    19:00 +9°C° 0 mm 3 mps 760 mmHg 94%
    20:00 +8°C° 0 mm 2 mps 761 mmHg 94%
    21:00 +8°C° 0 mm 1 mps 762 mmHg 94%
    22:00 +8°C° 0 mm 1 mps 762 mmHg 95%
    23:00 +7°C° 0 mm 2 mps 763 mmHg 95%

    23 January, Tuesday

    Time Temperature Precipitation Wind Pressure Humidity
    00:00 +6°C° 0 mm 2 mps 763 mmHg 95%
    01:00 +7°C° 0 mm 3 mps 763 mmHg 95%
    02:00 +7°C° 0 mm 3 mps 763 mmHg 95%
    03:00 +7°C° 0 mm 4 mps 763 mmHg 95%
    04:00 +6°C° 0 mm 4 mps 764 mmHg 94%
    05:00 +6°C° 0 mm 4 mps 764 mmHg 94%
    06:00 +6°C° 0 mm 5 mps 764 mmHg 93%
    07:00 +6°C° 0 mm 5 mps 764 mmHg 93%
    08:00 +5°C° 0 mm 6 mps 765 mmHg 93%
    09:00 +7°C° 0 mm 6 mps 765 mmHg 92%
    10:00 +7°C° 0 mm 6 mps 765 mmHg 89%
    11:00 +8°C° 0 mm 7 mps 765 mmHg 86%
    12:00 +9°C° 0 mm 7 mps 765 mmHg 83%
    13:00 +9°C° 0 mm 7 mps 765 mmHg 85%
    14:00 +9°C° 0 mm 7 mps 765 mmHg 86%
    15:00 +9°C° 0 mm 6 mps 765 mmHg 88%
    16:00 +9°C° 0 mm 6 mps 765 mmHg 90%
    17:00 +9°C° 0 mm 6 mps 765 mmHg 92%
    18:00 +9°C° 0 mm 6 mps 765 mmHg 94%
    19:00 +9°C° 0 mm 6 mps 765 mmHg 94%
    20:00 +9°C° 0 mm 6 mps 765 mmHg 94%
    21:00 +9°C° 0 mm 6 mps 765 mmHg 94%
    22:00 +9°C° 0 mm 6 mps 765 mmHg 94%
    23:00 +9°C° 0 mm 7 mps 765 mmHg 94%

    24 January, Wednesday

    Time Temperature Precipitation Wind Pressure Humidity
    00:00 +9°C° 0 mm 7 mps 765 mmHg 94%
    01:00 +9°C° 0 mm 7 mps 764 mmHg 93%
    02:00 +10°C° 0 mm 7 mps 764 mmHg 93%
    03:00 +10°C° 0 mm 8 mps 764 mmHg 92%
    04:00 +10°C° 0 mm 8 mps 764 mmHg 91%
    05:00 +10°C° 0 mm 8 mps 764 mmHg 89%
    06:00 +11°C° 0 mm 8 mps 763 mmHg 88%
    07:00 +10°C° 0 mm 9 mps 763 mmHg 87%
    08:00 +10°C° 0 mm 9 mps 763 mmHg 86%
    09:00 +10°C° 0 mm 9 mps 763 mmHg 85%
    10:00 +9°C° 0 mm 10 mps 763 mmHg 83%
    11:00 +11°C° 0 mm 10 mps 763 mmHg 81%
    12:00 +11°C° 0 mm 10 mps 762 mmHg 78%
    13:00 +11°C° 0 mm 10 mps 762 mmHg 77%
    14:00 +11°C° 0 mm 9 mps 761 mmHg 76%
    15:00 +12°C° 0 mm 9 mps 761 mmHg 75%
    16:00 +11°C° 0 mm 9 mps 761 mmHg 77%
    17:00 +11°C° 0 mm 9 mps 760 mmHg 79%
    18:00 +11°C° 0 mm 9 mps 760 mmHg 81%
    19:00 +11°C° 0 mm 9 mps 760 mmHg 82%
    20:00 +11°C° 0 mm 9 mps 759 mmHg 83%
    21:00 +9°C° 0 mm 10 mps 759 mmHg 84%
    22:00 +10°C° 0.1 mm 9 mps 759 mmHg 83%
    23:00 +10°C° 0.1 mm 9 mps 759 mmHg 82%
    Show more